Regional Weather Roundup
Issued by NWS Bismarck, ND

Home | Current Version | Previous Version | Text Only | Print | Product List | Glossary On
Versions: 1 2 3 4 5 6 7 8 9 10 11 12 13 14 15 16 17 18 19 20 21 22 23 24 25 26 27 28 29 30 31 32 33 34 35 36 37 38 39 40 41 42 43 44 45 46 47 48 49 50
000
ASUS43 KBIS 281010
RWRBIS

NWR BROADCAST TEXT
NATIONAL WEATHER SERVICE BISMARCK ND
500 AM CDT SUN AUG 28 2016

NOTE: "FAIR" INDICATES FEW OR NO CLOUDS BELOW 12,000 FEET WITH NO
SIGNIFICANT WEATHER AND/OR OBSTRUCTIONS TO VISIBILITY.


CITY           SKY/WX    TMP DP  RH WIND       PRES   REMARKS
WILLISTON      CLOUDY    65  48  54 S7        29.82S
MINOT          CLEAR     55  49  80 CALM      29.85F
MINOT AFB      CLEAR     53  49  85 SE7       29.85S
BISMARCK       PTCLDY    57  53  86 NE8       29.89F
DICKINSON      CLEAR     59  52  77 S13       29.86F
GARRISON         N/A     57  52  83 E5        29.87F
HETTINGER ARPT CLEAR     52  49  89 CALM      29.90R
JAMESTOWN      CLEAR     59  58  96 SE7       29.95R
CARRINGTON     FAIR      57  57 100 SE9       29.96S
HAZEN          FAIR      63  50  63 CALM      29.88S
LINTON         FAIR      63  63 100 SE12G18   29.92S
MANDAN         FAIR      59  55  88 E8        29.89F
OAKES            N/A    N/A N/A N/A MISG        N/A
RUGBY          FAIR      59  57  94 SE8       29.90S
STANLEY        FAIR      55  54  94 E5        29.89R
WATFORD CITY   FAIR      63  54  72 S6        29.84F
$$

CITY           SKY/WX    TMP DP  RH WIND       PRES   REMARKS
GRAND FORKS    CLEAR     58  55  90 SE7       29.97R
GRAND FORKS AF CLEAR     57  56  97 S7        29.98R
DEVILS LAKE    CLEAR     61  59  93 SE8       29.95S
FARGO          CLEAR     62  58  86 S12       30.00R
CAVALIER       FAIR      54  54 100 SE5       29.96S
GRAFTON        FAIR      52  52 100 SE3       29.98S
GWINNER        FAIR      61  61 100 E7        29.98S
LANGDON        FAIR      57  57 100 S7        29.96S
ROLLA          FOG       55  55 100 S5        29.94S VSB 1/4
$$

CITY           SKY/WX    TMP DP  RH WIND       PRES   REMARKS
ABERDEEN       CLEAR     67  63  87 SE12      29.95S
MOBRIDGE       CLEAR     66  60  81 E10       29.87F
BUFFALO          N/A     60  55  83 S5        29.84R
RAPID CITY     CLEAR     59  51  75 S5        29.92S
GLASGOW        CLOUDY    64  46  52 E8        29.76F
SIDNEY         PTCLDY    55  47  74 CALM      29.82S
WOLF POINT     MOCLDY    59  45  59 CALM      29.79R
GLENDIVE       CLEAR     60  47  61 SW7       29.85R
MILES CITY     CLEAR     60  47  61 S8        29.84R
BAKER          CLEAR     55  50  83 SE6       29.89R
$$

CITY           SKY/WX    TMP DP  RH WIND       PRES   REMARKS
BILLINGS       CLEAR     70  33  25 SW12      29.90R
GREAT FALLS    CLOUDY    70  38  31 SW12      29.86R
REGINA         CLOUDY    61  48  63 SE12      29.73S
ESTEVAN        PTCLDY    55  48  76 SE7       29.80S
$$





USA.gov is the U.S. government's official web portal to all federal, state and local government web resources and services.